Tracking 28096 objects as of 27-Sep-2023
HD Live streaming from Space Station
objects crossing your sky now

BREEZE-M R/B

Track BREEZE-M R/B now!


NORAD ID: 40278
Int'l Code: 2014-064B
Perigee: 34,650.2 km
Apogee: 39,892.2 km
Inclination: 6.7 °
Period: 1,512.2 minutes
Semi major axis: 43642 km
RCS: Unknown
Launch date: October 21, 2014
Source: Commonwealth of Independent States (former USSR) (CIS)
Launch site: TYURATAM MISSILE AND SPACE COMPLEX (TTMTR)

Note: This is a ROCKET BODY
Your satellite tracking list
Your tracking list is empty




NASA's NSSDC Master Catalog

Two Line Element Set (TLE):
1 40278U 14064B   23269.73716526 -.00000202  00000-0  00000-0 0  9990
2 40278   6.7039  72.2074 0600562 193.9225 164.5906  0.95223243 31050
Source of the keplerian elements: AFSPC